Temp
55 54 53 52 52 51 51 51 51 51 50 50 49 49 48 47 46 46 46 46 45 45 45 45 44 44 44 44 43 42 41 41 41 42 42 42 42 41 41 41 40 40 40 40 40 40 39 39 39 38 38 37 37 38 38 37 38 38 38 38 37 37 37 37 36 36 37 37 37
55 55 54 53 52 51 50 50 50 50 50 49 49 48 48 47 46 46 46 46 45 45 45 45 45 45 44 44 44 43 42 41 41 41 42 42 42 41 41 40 40 40 39 39 39 39 38 38 38 37 37 37 37 37 36 36 37 37 37 37 37 37 37 36 36 36 37 37 37
55 54 54 53 52 51 50 49 49 49 49 49 48 48 47 46 46 46 46 46 46 46 46 45 45 45 45 45 44 43 43 42 41 41 41 42 41 41 41 40 40 39 39 38 38 38 38 37 37 37 36 36 36 36 36 36 37 36 36 36 36 36 36 36 36 36 36 36 36
54 54 53 52 52 51 50 49 49 49 49 48 48 47 47 46 46 46 47 47 47 47 46 46 46 46 45 45 44 44 43 42 42 42 41 42 41 41 41 40 40 39 38 38 37 37 37 37 36 36 36 35 35 35 35 36 36 36 36 36 36 36 36 36 36 36 36 36 36
54 53 52 52 51 51 50 50 50 49 49 49 48 47 47 46 47 47 47 47 47 46 46 46 46 45 45 45 45 44 43 43 42 42 41 41 41 41 40 40 39 39 38 37 37 36 36 36 36 35 35 35 35 35 35 36 36 36 36 36 36 36 36 36 36 36 36 36 35
53 53 52 51 51 51 50 50 50 50 50 49 48 48 47 47 46 47 47 47 47 47 47 46 45 45 45 45 44 44 43 42 42 42 41 41 41 41 40 39 39 38 38 37 36 36 35 35 35 34 34 34 34 35 36 36 35 35 35 35 35 36 36 35 36 36 36 35 35
53 53 52 52 51 51 50 50 50 50 50 49 48 48 47 47 46 46 47 47 47 47 46 45 45 44 44 44 43 43 42 42 41 41 41 41 41 40 39 39 38 38 37 37 36 35 35 35 34 34 34 34 34 34 35 35 35 35 34 34 35 35 35 35 35 35 35 35 34
53 53 52 52 51 50 50 50 49 49 49 48 48 48 47 47 46 46 47 47 47 46 46 44 43 43 43 42 42 41 41 41 41 41 41 41 40 40 39 38 38 37 37 36 36 35 35 35 34 33 33 33 33 34 34 34 34 34 33 33 34 35 34 34 33 34 34 34 33
53 52 52 51 51 50 50 49 49 49 49 48 48 48 48 47 46 46 46 46 46 46 45 44 43 43 42 41 41 40 40 40 40 40 40 40 39 39 38 37 37 37 36 36 35 35 34 34 33 33 33 33 33 33 33 33 32 32 32 33 33 34 34 34 34 34 34 33 32
52 52 52 51 51 50 50 49 49 49 49 49 49 48 48 47 46 46 46 46 46 46 45 44 43 42 41 40 40 39 39 39 39 39 39 39 38 37 37 36 36 36 35 35 35 34 34 33 33 33 33 33 33 33 33 32 31 31 31 32 32 33 33 34 34 34 33 33 31
53 52 52 51 51 50 49 49 48 48 48 48 48 48 48 47 47 46 46 46 46 45 45 44 43 42 40 39 39 39 39 39 39 38 38 38 37 37 36 36 35 35 34 34 34 34 33 32 32 32 32 33 33 32 32 32 31 30 30 31 31 31 32 33 33 33 33 32 31
53 52 52 51 50 49 49 48 47 47 47 47 47 47 47 47 47 47 46 45 45 45 44 44 42 41 40 39 38 38 38 38 38 38 37 37 36 36 36 35 34 34 33 33 33 33 32 31 31 31 31 32 32 32 31 31 30 30 29 30 30 30 30 31 32 32 32 32 31
53 52 51 51 50 49 48 47 46 46 46 46 46 46 47 47 47 47 46 45 44 43 43 42 41 40 39 38 38 38 38 37 37 37 36 36 36 35 35 34 33 33 32 33 33 32 32 31 31 30 31 31 31 31 31 30 30 29 29 29 29 30 30 30 31 32 32 32 31
53 52 51 50 49 48 47 46 46 45 45 45 45 46 46 46 47 46 45 44 43 42 41 40 40 39 39 38 37 37 37 37 36 36 36 36 35 35 34 34 33 32 32 32 32 32 31 31 31 30 30 30 30 30 30 30 30 29 29 29 29 29 29 30 31 31 31 31 30
53 52 51 50 49 48 46 45 45 45 45 45 45 45 45 46 46 46 45 44 42 41 40 39 38 38 38 38 38 37 37 36 36 36 35 35 35 34 34 33 33 32 31 31 31 31 31 31 31 30 30 30 30 30 30 30 29 29 29 29 29 29 29 30 30 30 30 30 29
52 51 51 50 48 47 46 45 45 45 45 45 45 45 45 45 45 45 44 43 42 40 39 38 38 37 37 38 38 37 36 36 35 35 35 34 34 34 33 33 32 32 31 30 31 31 31 31 31 30 30 29 29 29 29 30 29 29 29 29 29 29 29 30 30 30 30 29 29
51 51 50 49 48 47 46 45 45 45 45 45 45 45 45 45 44 44 43 42 41 40 39 37 37 37 37 37 37 37 36 35 35 35 34 34 33 33 33 33 32 31 30 30 30 30 30 31 31 30 30 29 29 29 29 29 29 29 29 30 30 29 29 30 30 30 29 29 29
51 50 49 49 48 47 46 45 45 44 44 44 44 44 44 44 43 43 42 42 41 40 39 38 37 37 37 36 36 36 35 34 34 34 34 34 33 33 32 32 32 31 30 30 30 30 30 30 30 30 30 29 29 29 29 29 29 29 29 29 29 29 29 30 30 30 30 30 29
50 50 49 48 47 46 45 45 44 44 44 44 44 44 43 43 42 42 41 41 41 40 39 38 38 37 37 37 36 36 35 34 34 34 33 33 33 33 32 32 31 30 30 29 30 30 30 30 30 30 30 29 29 29 29 29 30 30 30 29 29 29 29 29 30 30 30 30 30
50 49 49 48 47 46 45 45 44 44 44 44 43 43 43 42 42 41 40 39 40 40 39 38 38 37 37 37 36 35 35 34 33 33 33 33 33 33 32 32 31 30 29 29 29 29 30 30 30 30 29 29 29 29 29 30 30 30 29 29 29 29 29 29 30 30 30 30 30
49 49 48 48 47 46 46 45 45 44 44 43 43 42 42 42 41 40 39 39 40 40 39 38 38 37 37 36 36 35 34 34 34 33 33 33 33 32 32 31 31 30 29 28 29 29 29 29 29 29 29 29 29 29 29 30 30 30 29 29 29 29 29 30 30 30 30 30 29
49 49 48 48 47 47 46 46 45 44 44 43 43 42 42 41 41 40 40 39 40 39 39 39 38 37 37 36 36 35 34 34 34 34 33 33 32 32 32 31 30 29 28 28 28 28 29 29 29 29 29 29 29 29 29 30 30 29 29 29 29 29 29 30 31 31 30 30 29
49 49 48 48 47 46 46 45 45 44 43 43 42 42 41 41 41 40 40 39 39 39 39 39 38 38 37 36 36 35 35 34 34 34 33 32 31 31 31 31 30 29 28 27 28 28 28 28 29 29 29 29 28 29 29 30 29 29 28 28 29 29 30 30 31 31 31 30 30
49 48 48 47 46 46 45 45 44 43 43 42 42 41 41 41 40 40 39 38 38 38 38 38 38 38 37 36 36 36 35 34 33 33 32 32 31 31 30 30 30 29 28 28 28 28 28 28 28 28 28 28 28 29 29 29 29 28 28 28 28 29 30 31 31 31 31 31 31
48 48 47 47 46 45 44 43 43 42 42 42 41 41 41 40 40 39 38 37 36 36 37 37 37 37 37 36 36 36 35 34 32 31 31 31 31 30 30 30 29 29 29 29 31 32 32 31 30 29 28 28 28 28 28 28 28 28 28 28 28 29 30 31 31 32 32 31 31
48 47 47 46 46 45 44 43 42 42 42 41 41 41 40 40 39 38 37 36 36 36 37 37 37 37 36 36 36 35 34 33 32 31 30 30 30 30 30 29 29 29 29 30 33 34 34 34 34 32 30 28 28 28 28 28 28 28 28 28 29 30 30 31 31 31 32 32 32
48 47 46 46 45 45 44 43 43 42 42 41 41 40 40 39 39 38 38 37 36 36 36 36 36 36 36 36 34 33 33 32 31 31 30 29 29 29 29 29 29 29 29 31 34 35 36 36 36 35 32 29 29 28 28 28 28 28 28 28 29 30 30 30 30 31 32 33 33
48 47 46 46 45 45 44 43 43 42 42 41 41 40 40 39 39 38 38 37 37 36 36 35 36 36 36 35 33 32 31 31 31 30 30 30 29 29 29 29 29 29 30 33 34 36 36 37 37 37 35 31 29 28 28 28 28 28 28 28 29 29 30 30 30 31 32 33 33
48 47 47 46 45 45 44 44 43 42 42 42 41 40 39 39 38 38 38 37 37 36 36 35 36 36 35 34 33 32 31 31 31 31 31 30 30 29 29 29 29 30 32 34 35 36 37 37 38 38 37 34 31 29 28 28 28 28 29 29 29 30 30 30 30 31 32 33 33
47 47 47 46 45 45 44 44 43 43 42 42 41 40 39 39 38 38 38 37 37 36 36 36 35 35 35 34 33 32 32 31 31 31 30 30 30 29 29 30 30 30 32 35 36 36 37 38 38 39 38 37 33 30 29 29 29 30 30 30 31 31 31 31 31 32 33 34 34
46 46 46 46 45 45 45 45 44 43 42 42 41 40 39 39 38 38 38 38 38 37 37 36 35 35 34 34 34 33 32 31 30 30 30 29 29 30 30 30 29 30 32 35 36 37 37 38 39 39 39 39 35 32 30 30 30 31 32 32 32 33 33 33 33 33 34 34 35
46 46 46 46 45 45 45 45 44 43 42 41 40 40 39 39 39 39 39 39 39 38 37 35 34 34 34 34 33 33 32 31 30 29 29 29 29 29 30 30 29 30 32 35 36 37 38 38 39 40 40 40 36 33 31 31 32 32 33 33 33 34 34 33 34 34 35 35 35
45 45 46 45 45 45 45 45 44 43 42 41 40 40 39 39 39 39 39 39 39 38 36 35 34 33 33 33 33 32 32 31 30 30 30 30 29 29 30 30 30 31 32 35 36 37 38 38 39 40 40 41 38 35 33 33 33 34 34 34 34 35 35 35 35 36 36 36 36
43 45 45 45 45 45 45 44 43 43 42 41 40 40 40 39 39 39 39 39 39 38 37 37 36 35 34 34 33 33 32 32 31 31 30 30 30 30 29 29 29 31 33 35 36 37 38 39 39 40 40 41 38 36 35 35 35 34 35 35 35 36 36 36 36 36 36 36 37
43 45 45 45 45 45 45 44 43 43 42 41 41 40 40 40 39 39 39 39 39 38 38 37 37 36 36 35 34 33 33 32 32 31 30 30 30 29 29 29 30 32 34 35 36 37 38 39 39 40 40 40 38 37 36 36 35 35 35 35 36 36 36 36 36 36 36 36 37
45 46 45 45 45 45 45 44 43 43 42 41 41 40 40 40 40 40 40 40 39 38 37 37 36 36 35 35 34 33 33 32 32 31 31 30 30 29 29 29 30 32 33 35 36 37 38 39 40 40 40 39 38 37 37 36 36 36 36 36 36 36 37 36 36 36 36 36 37
46 46 46 46 46 45 45 44 43 43 42 41 41 41 40 40 41 41 41 40 39 38 37 37 36 35 34 34 33 33 33 33 32 31 31 31 30 29 29 29 30 31 33 35 36 36 38 39 40 40 40 38 37 37 37 36 36 36 36 36 36 36 37 37 37 36 36 36 36
47 47 46 46 45 45 45 44 43 43 42 42 42 42 41 41 41 41 41 40 39 38 37 36 36 35 34 34 33 33 33 33 32 32 31 31 30 30 29 29 30 31 32 34 35 36 37 39 40 40 40 38 37 37 36 36 36 36 36 36 36 37 37 37 37 37 37 36 36
48 47 46 45 45 45 44 44 44 43 43 43 42 42 42 42 41 41 41 40 39 38 37 36 36 35 35 34 34 33 33 33 33 32 31 31 31 30 30 29 30 30 32 34 35 36 37 39 40 40 40 38 37 37 36 36 35 35 36 36 36 36 37 37 38 38 37 37 37
50 49 47 46 45 45 44 44 44 44 43 43 43 42 42 42 42 41 41 40 39 38 37 37 36 36 35 35 34 33 32 32 32 32 32 31 31 31 31 30 30 30 31 33 35 36 37 38 40 40 40 38 37 37 36 36 35 35 35 35 36 36 36 37 38 38 38 38 38
50 50 49 48 46 45 45 44 44 44 44 43 43 43 43 42 42 41 41 40 39 38 37 37 36 36 35 35 34 33 32 32 32 32 32 32 32 32 32 31 30 30 31 32 34 36 37 38 39 40 40 38 37 37 36 36 35 34 35 35 35 36 36 37 37 38 38 38 38
MSLP
1013.64 1013.76 1013.84 1013.92 1014.04 1014.08 1014.12 1014.12 1014.16 1014.20 1014.28 1014.36 1014.40 1014.48 1014.60 1014.72 1014.76 1014.80 1014.92 1015.04 1015.20 1015.32 1015.48 1015.72 1015.92 1016.16 1016.40 1016.64 1016.92 1017.12 1017.36 1017.64 1017.84 1018.00 1018.08 1018.20 1018.36 1018.52 1018.76 1019.04 1019.32 1019.52 1019.76 1019.92 1020.16 1020.44 1020.68 1020.88 1021.04 1021.20 1021.40 1021.60 1021.72 1021.88 1022.04 1022.20 1022.32 1022.40 1022.48 1022.60 1022.72 1022.80 1022.92 1023.04 1023.04 1023.12 1023.20 1023.28 1023.36
1013.20 1013.36 1013.48 1013.64 1013.72 1013.76 1013.80 1013.84 1013.88 1013.92 1014.00 1014.08 1014.16 1014.28 1014.40 1014.52 1014.60 1014.64 1014.76 1014.84 1014.92 1015.04 1015.24 1015.44 1015.64 1015.88 1016.12 1016.36 1016.56 1016.84 1017.08 1017.36 1017.52 1017.72 1017.88 1018.00 1018.16 1018.36 1018.56 1018.76 1019.00 1019.20 1019.44 1019.64 1019.88 1020.08 1020.32 1020.56 1020.76 1020.92 1021.12 1021.32 1021.44 1021.60 1021.76 1021.92 1022.08 1022.20 1022.24 1022.32 1022.48 1022.60 1022.72 1022.76 1022.84 1022.92 1023.00 1023.04 1023.12
1012.88 1013.00 1013.12 1013.24 1013.32 1013.36 1013.40 1013.48 1013.48 1013.60 1013.72 1013.80 1013.92 1014.08 1014.20 1014.32 1014.40 1014.48 1014.56 1014.64 1014.76 1014.92 1015.04 1015.16 1015.32 1015.52 1015.76 1015.96 1016.24 1016.48 1016.76 1017.00 1017.20 1017.44 1017.64 1017.76 1017.92 1018.16 1018.36 1018.48 1018.72 1018.92 1019.16 1019.36 1019.64 1019.80 1020.00 1020.20 1020.44 1020.64 1020.76 1020.92 1021.12 1021.28 1021.44 1021.64 1021.80 1021.92 1022.04 1022.08 1022.20 1022.36 1022.48 1022.52 1022.56 1022.68 1022.80 1022.88 1022.92
1012.52 1012.64 1012.72 1012.76 1012.80 1012.88 1012.92 1013.04 1013.12 1013.24 1013.44 1013.60 1013.72 1013.84 1013.96 1014.08 1014.16 1014.20 1014.32 1014.44 1014.56 1014.68 1014.76 1014.88 1015.04 1015.20 1015.36 1015.64 1015.88 1016.12 1016.36 1016.64 1016.88 1017.12 1017.32 1017.48 1017.64 1017.88 1018.08 1018.28 1018.48 1018.64 1018.84 1019.08 1019.32 1019.52 1019.76 1019.96 1020.16 1020.32 1020.48 1020.64 1020.80 1020.96 1021.12 1021.36 1021.52 1021.64 1021.76 1021.92 1022.04 1022.16 1022.20 1022.20 1022.32 1022.44 1022.52 1022.60 1022.64
1012.16 1012.20 1012.28 1012.36 1012.40 1012.48 1012.64 1012.72 1012.80 1012.92 1013.12 1013.32 1013.48 1013.56 1013.64 1013.76 1013.84 1013.92 1014.04 1014.16 1014.20 1014.28 1014.40 1014.60 1014.76 1014.92 1015.08 1015.24 1015.48 1015.72 1015.96 1016.24 1016.52 1016.76 1017.00 1017.16 1017.36 1017.60 1017.84 1018.04 1018.20 1018.36 1018.60 1018.80 1019.04 1019.28 1019.48 1019.72 1019.92 1020.04 1020.20 1020.32 1020.48 1020.64 1020.84 1021.04 1021.24 1021.44 1021.56 1021.68 1021.80 1021.88 1021.92 1021.96 1022.08 1022.12 1022.20 1022.28 1022.36
1011.72 1011.80 1011.92 1012.00 1012.08 1012.20 1012.36 1012.44 1012.52 1012.64 1012.84 1013.00 1013.08 1013.12 1013.20 1013.36 1013.48 1013.60 1013.68 1013.72 1013.80 1013.96 1014.16 1014.36 1014.52 1014.72 1014.88 1015.04 1015.20 1015.40 1015.64 1015.92 1016.16 1016.40 1016.60 1016.84 1017.08 1017.36 1017.64 1017.80 1017.96 1018.12 1018.36 1018.56 1018.80 1019.04 1019.24 1019.48 1019.64 1019.76 1019.92 1020.08 1020.24 1020.40 1020.56 1020.76 1020.96 1021.16 1021.32 1021.44 1021.48 1021.60 1021.68 1021.72 1021.76 1021.88 1021.92 1021.96 1022.00
1011.28 1011.40 1011.52 1011.64 1011.76 1011.92 1012.04 1012.12 1012.28 1012.44 1012.60 1012.72 1012.72 1012.76 1012.80 1013.00 1013.16 1013.28 1013.36 1013.48 1013.64 1013.80 1014.00 1014.16 1014.32 1014.48 1014.64 1014.80 1015.00 1015.20 1015.36 1015.64 1015.88 1016.08 1016.32 1016.56 1016.80 1017.04 1017.32 1017.56 1017.76 1017.96 1018.12 1018.32 1018.56 1018.80 1019.04 1019.20 1019.36 1019.48 1019.68 1019.88 1020.00 1020.16 1020.36 1020.52 1020.68 1020.84 1021.00 1021.12 1021.20 1021.32 1021.40 1021.48 1021.52 1021.60 1021.64 1021.68 1021.72
1010.92 1011.04 1011.12 1011.24 1011.44 1011.56 1011.68 1011.84 1012.08 1012.20 1012.32 1012.36 1012.36 1012.36 1012.52 1012.76 1012.92 1013.08 1013.20 1013.36 1013.48 1013.60 1013.76 1013.96 1014.12 1014.28 1014.44 1014.64 1014.80 1015.00 1015.20 1015.40 1015.64 1015.84 1016.08 1016.24 1016.52 1016.76 1017.04 1017.28 1017.52 1017.76 1017.92 1018.08 1018.28 1018.48 1018.72 1018.92 1019.04 1019.20 1019.36 1019.52 1019.68 1019.88 1020.04 1020.20 1020.44 1020.60 1020.72 1020.80 1020.92 1021.04 1021.12 1021.24 1021.36 1021.40 1021.40 1021.40 1021.48
1010.64 1010.72 1010.80 1010.96 1011.12 1011.28 1011.44 1011.64 1011.76 1011.92 1011.96 1011.96 1012.04 1012.20 1012.40 1012.60 1012.80 1012.96 1013.12 1013.20 1013.28 1013.40 1013.60 1013.76 1013.92 1014.08 1014.32 1014.48 1014.64 1014.80 1015.04 1015.24 1015.40 1015.60 1015.76 1016.00 1016.20 1016.48 1016.76 1017.04 1017.24 1017.44 1017.64 1017.84 1018.04 1018.20 1018.40 1018.60 1018.76 1018.88 1019.04 1019.20 1019.32 1019.48 1019.64 1019.92 1020.20 1020.36 1020.48 1020.60 1020.72 1020.80 1020.88 1021.00 1021.08 1021.16 1021.16 1021.20 1021.24
1010.28 1010.36 1010.52 1010.72 1010.80 1010.96 1011.20 1011.36 1011.48 1011.64 1011.64 1011.72 1011.80 1012.00 1012.20 1012.40 1012.60 1012.76 1012.88 1012.96 1013.08 1013.24 1013.36 1013.48 1013.68 1013.92 1014.16 1014.32 1014.48 1014.64 1014.84 1015.04 1015.20 1015.36 1015.56 1015.76 1015.92 1016.16 1016.40 1016.64 1016.88 1017.08 1017.32 1017.52 1017.76 1017.96 1018.12 1018.28 1018.44 1018.56 1018.72 1018.88 1019.00 1019.16 1019.36 1019.64 1019.92 1020.16 1020.28 1020.40 1020.48 1020.56 1020.64 1020.64 1020.76 1020.84 1020.88 1020.92 1020.96
1010.04 1010.16 1010.28 1010.40 1010.52 1010.76 1011.00 1011.16 1011.24 1011.36 1011.48 1011.52 1011.64 1011.80 1012.00 1012.16 1012.36 1012.48 1012.64 1012.80 1012.92 1013.00 1013.04 1013.20 1013.48 1013.68 1013.88 1014.08 1014.24 1014.40 1014.64 1014.80 1015.00 1015.16 1015.32 1015.48 1015.64 1015.80 1016.04 1016.24 1016.48 1016.72 1016.92 1017.20 1017.40 1017.64 1017.84 1017.96 1018.08 1018.24 1018.40 1018.56 1018.76 1018.92 1019.16 1019.40 1019.64 1019.92 1020.08 1020.20 1020.28 1020.36 1020.36 1020.36 1020.48 1020.52 1020.60 1020.64 1020.68
1009.80 1009.96 1010.08 1010.20 1010.40 1010.60 1010.76 1010.92 1011.04 1011.16 1011.28 1011.36 1011.44 1011.60 1011.76 1011.92 1012.04 1012.24 1012.48 1012.64 1012.68 1012.72 1012.80 1013.04 1013.20 1013.40 1013.56 1013.76 1013.92 1014.16 1014.36 1014.48 1014.68 1014.84 1015.00 1015.16 1015.32 1015.48 1015.72 1015.92 1016.16 1016.36 1016.60 1016.84 1017.04 1017.28 1017.44 1017.60 1017.76 1017.92 1018.12 1018.28 1018.48 1018.68 1018.92 1019.16 1019.40 1019.64 1019.88 1019.96 1020.04 1020.08 1020.08 1020.12 1020.16 1020.20 1020.24 1020.36 1020.40
1009.64 1009.76 1009.92 1010.08 1010.24 1010.44 1010.60 1010.72 1010.80 1010.92 1011.04 1011.12 1011.24 1011.40 1011.52 1011.64 1011.80 1012.04 1012.20 1012.36 1012.40 1012.48 1012.68 1012.92 1013.04 1013.20 1013.32 1013.44 1013.64 1013.80 1013.96 1014.12 1014.32 1014.48 1014.64 1014.76 1014.96 1015.20 1015.40 1015.64 1015.88 1016.12 1016.36 1016.56 1016.76 1016.92 1017.04 1017.20 1017.40 1017.64 1017.80 1018.00 1018.20 1018.36 1018.64 1018.92 1019.16 1019.36 1019.52 1019.64 1019.72 1019.72 1019.72 1019.76 1019.88 1019.92 1019.96 1020.04 1020.08
1009.48 1009.64 1009.76 1009.92 1010.08 1010.24 1010.36 1010.48 1010.60 1010.68 1010.76 1010.88 1011.00 1011.16 1011.32 1011.48 1011.64 1011.76 1011.92 1012.08 1012.16 1012.32 1012.52 1012.72 1012.88 1012.96 1013.04 1013.20 1013.36 1013.48 1013.60 1013.76 1013.92 1014.04 1014.16 1014.36 1014.56 1014.80 1015.04 1015.28 1015.52 1015.80 1016.08 1016.28 1016.44 1016.56 1016.68 1016.84 1017.04 1017.28 1017.48 1017.68 1017.88 1018.08 1018.36 1018.64 1018.88 1019.04 1019.20 1019.28 1019.36 1019.36 1019.36 1019.44 1019.52 1019.64 1019.72 1019.76 1019.76
1009.40 1009.48 1009.64 1009.76 1009.92 1010.04 1010.12 1010.24 1010.36 1010.44 1010.48 1010.64 1010.72 1010.88 1011.04 1011.16 1011.32 1011.48 1011.64 1011.76 1011.92 1012.12 1012.36 1012.52 1012.64 1012.76 1012.88 1013.04 1013.16 1013.24 1013.36 1013.48 1013.60 1013.68 1013.76 1013.92 1014.12 1014.40 1014.68 1014.92 1015.20 1015.48 1015.76 1015.92 1016.12 1016.24 1016.36 1016.48 1016.72 1016.96 1017.20 1017.36 1017.64 1017.88 1018.16 1018.44 1018.64 1018.76 1018.84 1018.92 1018.96 1019.00 1019.04 1019.12 1019.20 1019.36 1019.40 1019.44 1019.48
1009.28 1009.36 1009.48 1009.64 1009.76 1009.80 1009.92 1010.04 1010.08 1010.16 1010.24 1010.32 1010.44 1010.64 1010.76 1010.84 1010.96 1011.12 1011.28 1011.44 1011.64 1011.92 1012.08 1012.24 1012.36 1012.56 1012.72 1012.88 1013.00 1013.12 1013.24 1013.40 1013.48 1013.56 1013.64 1013.68 1013.80 1014.04 1014.28 1014.56 1014.80 1015.08 1015.36 1015.64 1015.80 1015.96 1016.08 1016.20 1016.44 1016.68 1016.92 1017.12 1017.40 1017.68 1017.92 1018.12 1018.32 1018.44 1018.52 1018.60 1018.64 1018.72 1018.76 1018.88 1018.92 1019.04 1019.08 1019.12 1019.20
1009.16 1009.24 1009.36 1009.48 1009.56 1009.64 1009.72 1009.76 1009.84 1009.92 1009.96 1010.04 1010.16 1010.32 1010.48 1010.56 1010.68 1010.80 1010.96 1011.12 1011.36 1011.56 1011.76 1011.92 1012.12 1012.36 1012.52 1012.68 1012.80 1012.96 1013.12 1013.24 1013.36 1013.48 1013.56 1013.64 1013.68 1013.80 1014.00 1014.24 1014.44 1014.68 1015.00 1015.24 1015.48 1015.64 1015.76 1015.92 1016.20 1016.44 1016.68 1016.92 1017.20 1017.48 1017.68 1017.88 1018.04 1018.12 1018.20 1018.32 1018.40 1018.48 1018.52 1018.60 1018.64 1018.76 1018.80 1018.84 1018.88
1008.96 1009.08 1009.20 1009.32 1009.36 1009.44 1009.48 1009.56 1009.64 1009.64 1009.72 1009.76 1009.92 1010.04 1010.16 1010.24 1010.36 1010.48 1010.64 1010.76 1010.96 1011.16 1011.36 1011.60 1011.84 1012.08 1012.24 1012.40 1012.56 1012.72 1012.88 1013.00 1013.12 1013.24 1013.36 1013.52 1013.64 1013.72 1013.84 1014.00 1014.16 1014.40 1014.68 1014.92 1015.08 1015.28 1015.48 1015.64 1015.92 1016.20 1016.48 1016.76 1017.04 1017.28 1017.48 1017.64 1017.72 1017.80 1017.92 1018.04 1018.12 1018.20 1018.24 1018.32 1018.36 1018.48 1018.52 1018.56 1018.52
1008.76 1008.92 1009.04 1009.12 1009.20 1009.24 1009.32 1009.40 1009.40 1009.48 1009.48 1009.56 1009.68 1009.76 1009.80 1009.88 1010.00 1010.12 1010.28 1010.40 1010.52 1010.72 1010.92 1011.16 1011.36 1011.64 1011.80 1011.96 1012.12 1012.32 1012.48 1012.64 1012.76 1012.88 1013.04 1013.24 1013.44 1013.60 1013.72 1013.84 1014.04 1014.24 1014.48 1014.68 1014.84 1015.00 1015.20 1015.40 1015.64 1015.92 1016.28 1016.60 1016.84 1017.04 1017.20 1017.36 1017.40 1017.52 1017.64 1017.76 1017.80 1017.92 1017.96 1018.04 1018.08 1018.16 1018.20 1018.20 1018.24
1008.64 1008.72 1008.84 1008.92 1009.04 1009.12 1009.20 1009.24 1009.24 1009.28 1009.32 1009.36 1009.40 1009.44 1009.48 1009.56 1009.64 1009.72 1009.80 1009.92 1010.04 1010.20 1010.36 1010.52 1010.72 1010.92 1011.12 1011.32 1011.56 1011.76 1011.96 1012.16 1012.36 1012.52 1012.76 1012.92 1013.16 1013.32 1013.48 1013.68 1013.88 1014.08 1014.32 1014.48 1014.64 1014.80 1015.00 1015.20 1015.44 1015.72 1016.00 1016.28 1016.52 1016.72 1016.88 1017.04 1017.08 1017.20 1017.36 1017.44 1017.52 1017.60 1017.64 1017.76 1017.80 1017.88 1017.92 1017.92 1017.96
1008.48 1008.56 1008.64 1008.76 1008.88 1008.96 1009.04 1009.12 1009.16 1009.20 1009.20 1009.24 1009.24 1009.24 1009.28 1009.36 1009.40 1009.44 1009.48 1009.48 1009.64 1009.76 1009.84 1009.88 1010.00 1010.16 1010.36 1010.60 1010.84 1011.08 1011.36 1011.64 1011.92 1012.12 1012.36 1012.52 1012.76 1012.92 1013.16 1013.44 1013.64 1013.88 1014.08 1014.24 1014.44 1014.64 1014.80 1015.04 1015.24 1015.48 1015.72 1015.96 1016.16 1016.36 1016.52 1016.64 1016.76 1016.84 1017.00 1017.08 1017.20 1017.24 1017.36 1017.44 1017.48 1017.52 1017.60 1017.64 1017.64
1008.36 1008.44 1008.48 1008.64 1008.72 1008.80 1008.92 1009.00 1009.08 1009.20 1009.24 1009.24 1009.32 1009.36 1009.40 1009.48 1009.48 1009.52 1009.60 1009.68 1009.76 1009.76 1009.68 1009.68 1009.68 1009.76 1009.92 1010.12 1010.36 1010.64 1010.92 1011.20 1011.48 1011.64 1011.84 1012.08 1012.28 1012.52 1012.80 1013.08 1013.36 1013.64 1013.84 1014.08 1014.20 1014.36 1014.56 1014.80 1015.00 1015.20 1015.40 1015.64 1015.80 1016.00 1016.16 1016.24 1016.32 1016.44 1016.60 1016.68 1016.80 1016.92 1017.00 1017.08 1017.12 1017.20 1017.20 1017.28 1017.32
1008.16 1008.28 1008.36 1008.48 1008.56 1008.64 1008.76 1008.88 1008.96 1009.08 1009.20 1009.28 1009.40 1009.48 1009.60 1009.64 1009.76 1009.84 1009.92 1010.04 1010.08 1010.04 1009.96 1010.00 1009.96 1010.00 1010.08 1010.16 1010.28 1010.48 1010.68 1010.92 1011.08 1011.24 1011.48 1011.72 1011.96 1012.20 1012.48 1012.76 1013.04 1013.28 1013.48 1013.72 1013.92 1014.08 1014.28 1014.48 1014.68 1014.88 1015.04 1015.20 1015.40 1015.60 1015.76 1015.84 1015.92 1016.08 1016.20 1016.28 1016.40 1016.52 1016.60 1016.68 1016.72 1016.76 1016.84 1016.88 1016.92
1008.00 1008.12 1008.20 1008.28 1008.36 1008.44 1008.56 1008.68 1008.80 1008.92 1009.04 1009.12 1009.24 1009.40 1009.52 1009.64 1009.76 1009.88 1010.00 1010.08 1010.20 1010.20 1010.28 1010.32 1010.36 1010.40 1010.44 1010.48 1010.48 1010.56 1010.64 1010.72 1010.84 1011.00 1011.20 1011.40 1011.64 1011.92 1012.20 1012.40 1012.64 1012.84 1013.04 1013.24 1013.48 1013.64 1013.84 1014.08 1014.28 1014.48 1014.64 1014.80 1015.00 1015.20 1015.36 1015.48 1015.56 1015.64 1015.76 1015.88 1016.00 1016.08 1016.20 1016.20 1016.28 1016.36 1016.40 1016.48 1016.48
1007.76 1007.84 1007.92 1008.04 1008.08 1008.20 1008.36 1008.48 1008.56 1008.64 1008.76 1008.92 1009.00 1009.16 1009.28 1009.36 1009.52 1009.68 1009.80 1009.92 1010.08 1010.20 1010.28 1010.36 1010.44 1010.56 1010.64 1010.72 1010.72 1010.68 1010.64 1010.64 1010.68 1010.80 1010.96 1011.16 1011.36 1011.64 1011.88 1012.08 1012.24 1012.40 1012.64 1012.80 1012.92 1013.04 1013.24 1013.48 1013.68 1013.92 1014.16 1014.36 1014.56 1014.76 1014.96 1015.08 1015.20 1015.24 1015.36 1015.48 1015.60 1015.64 1015.72 1015.76 1015.80 1015.88 1015.92 1016.00 1016.04
1007.52 1007.60 1007.64 1007.72 1007.84 1007.92 1008.08 1008.16 1008.24 1008.36 1008.48 1008.64 1008.76 1008.88 1008.96 1009.04 1009.20 1009.36 1009.52 1009.68 1009.84 1009.96 1010.12 1010.20 1010.32 1010.44 1010.52 1010.60 1010.64 1010.68 1010.64 1010.64 1010.64 1010.68 1010.76 1010.92 1011.12 1011.32 1011.52 1011.72 1011.84 1012.00 1012.16 1012.28 1012.36 1012.48 1012.64 1012.88 1013.04 1013.36 1013.64 1013.92 1014.16 1014.36 1014.56 1014.72 1014.76 1014.88 1015.00 1015.08 1015.16 1015.24 1015.28 1015.32 1015.36 1015.40 1015.48 1015.52 1015.56
1007.36 1007.36 1007.40 1007.48 1007.56 1007.64 1007.72 1007.80 1007.92 1008.08 1008.16 1008.28 1008.40 1008.48 1008.64 1008.76 1008.92 1009.04 1009.16 1009.28 1009.48 1009.64 1009.84 1009.96 1010.08 1010.16 1010.24 1010.36 1010.40 1010.44 1010.48 1010.60 1010.64 1010.64 1010.72 1010.76 1010.88 1011.04 1011.20 1011.36 1011.48 1011.64 1011.76 1011.80 1011.92 1012.04 1012.20 1012.32 1012.48 1012.76 1013.08 1013.48 1013.76 1013.92 1014.08 1014.24 1014.36 1014.48 1014.64 1014.72 1014.80 1014.84 1014.88 1014.88 1014.92 1014.96 1015.00 1015.04 1015.08
1007.24 1007.20 1007.24 1007.24 1007.32 1007.36 1007.40 1007.52 1007.64 1007.68 1007.76 1007.92 1008.00 1008.12 1008.28 1008.44 1008.56 1008.64 1008.72 1008.88 1009.04 1009.28 1009.48 1009.60 1009.72 1009.84 1009.92 1009.96 1010.04 1010.12 1010.20 1010.36 1010.48 1010.60 1010.64 1010.68 1010.76 1010.80 1010.92 1011.00 1011.12 1011.28 1011.40 1011.48 1011.56 1011.64 1011.72 1011.80 1011.96 1012.20 1012.56 1013.04 1013.36 1013.56 1013.68 1013.84 1013.96 1014.12 1014.28 1014.36 1014.40 1014.48 1014.48 1014.56 1014.56 1014.60 1014.64 1014.64 1014.64
1007.16 1007.12 1007.12 1007.08 1007.04 1007.04 1007.08 1007.20 1007.28 1007.36 1007.40 1007.52 1007.64 1007.76 1007.92 1008.04 1008.12 1008.20 1008.32 1008.44 1008.64 1008.76 1008.92 1009.08 1009.28 1009.44 1009.48 1009.48 1009.52 1009.68 1009.88 1010.04 1010.20 1010.32 1010.40 1010.48 1010.56 1010.56 1010.60 1010.68 1010.80 1010.92 1011.04 1011.12 1011.20 1011.24 1011.32 1011.36 1011.48 1011.72 1012.04 1012.48 1012.92 1013.24 1013.40 1013.48 1013.64 1013.76 1013.84 1013.92 1014.00 1014.08 1014.12 1014.12 1014.20 1014.20 1014.20 1014.20 1014.20
1007.04 1006.96 1006.92 1006.88 1006.84 1006.84 1006.84 1006.92 1006.92 1007.04 1007.12 1007.24 1007.36 1007.44 1007.56 1007.64 1007.76 1007.80 1007.92 1008.08 1008.16 1008.32 1008.48 1008.64 1008.80 1008.88 1008.92 1008.92 1009.04 1009.20 1009.36 1009.52 1009.68 1009.84 1009.96 1010.08 1010.08 1010.16 1010.24 1010.36 1010.48 1010.56 1010.68 1010.76 1010.80 1010.88 1010.92 1011.04 1011.12 1011.28 1011.52 1011.92 1012.44 1012.80 1013.00 1013.12 1013.20 1013.28 1013.36 1013.44 1013.48 1013.52 1013.60 1013.68 1013.72 1013.76 1013.76 1013.76 1013.76
1006.88 1006.80 1006.76 1006.68 1006.60 1006.56 1006.60 1006.64 1006.72 1006.80 1006.92 1007.00 1007.08 1007.16 1007.20 1007.24 1007.32 1007.40 1007.48 1007.60 1007.72 1007.88 1008.08 1008.24 1008.36 1008.36 1008.36 1008.44 1008.64 1008.76 1008.88 1009.00 1009.16 1009.32 1009.40 1009.48 1009.56 1009.64 1009.80 1009.92 1010.08 1010.16 1010.24 1010.32 1010.36 1010.48 1010.52 1010.64 1010.76 1010.88 1011.08 1011.36 1011.88 1012.24 1012.48 1012.64 1012.76 1012.76 1012.76 1012.84 1012.88 1012.96 1013.04 1013.16 1013.20 1013.20 1013.20 1013.24 1013.24
1006.68 1006.64 1006.52 1006.44 1006.36 1006.32 1006.36 1006.36 1006.48 1006.56 1006.64 1006.76 1006.80 1006.84 1006.88 1006.92 1006.92 1007.00 1007.08 1007.20 1007.36 1007.52 1007.72 1007.88 1007.92 1007.96 1008.04 1008.16 1008.28 1008.36 1008.48 1008.64 1008.76 1008.88 1008.96 1009.04 1009.20 1009.32 1009.44 1009.56 1009.64 1009.76 1009.84 1009.92 1009.96 1010.08 1010.16 1010.24 1010.36 1010.48 1010.68 1010.88 1011.28 1011.64 1011.96 1012.08 1012.20 1012.24 1012.24 1012.28 1012.36 1012.44 1012.52 1012.64 1012.64 1012.68 1012.72 1012.76 1012.76
1006.56 1006.44 1006.32 1006.20 1006.12 1006.08 1006.12 1006.20 1006.24 1006.36 1006.44 1006.48 1006.48 1006.48 1006.52 1006.56 1006.64 1006.72 1006.84 1006.92 1007.04 1007.16 1007.24 1007.36 1007.48 1007.60 1007.72 1007.84 1007.96 1008.08 1008.20 1008.36 1008.48 1008.60 1008.72 1008.88 1009.00 1009.08 1009.20 1009.28 1009.32 1009.40 1009.48 1009.56 1009.64 1009.68 1009.76 1009.84 1010.00 1010.12 1010.28 1010.44 1010.76 1011.12 1011.40 1011.56 1011.68 1011.76 1011.76 1011.84 1011.92 1011.96 1012.08 1012.12 1012.20 1012.20 1012.20 1012.24 1012.32
1006.44 1006.28 1006.16 1006.00 1005.92 1005.92 1005.92 1005.96 1006.04 1006.08 1006.16 1006.16 1006.16 1006.16 1006.20 1006.24 1006.32 1006.40 1006.48 1006.60 1006.72 1006.80 1006.88 1006.92 1007.04 1007.20 1007.36 1007.48 1007.68 1007.80 1007.92 1008.08 1008.24 1008.40 1008.60 1008.72 1008.88 1008.96 1009.04 1009.04 1009.04 1009.12 1009.20 1009.32 1009.36 1009.36 1009.44 1009.52 1009.64 1009.80 1009.96 1010.08 1010.36 1010.64 1010.84 1011.04 1011.16 1011.24 1011.32 1011.40 1011.48 1011.56 1011.64 1011.68 1011.72 1011.76 1011.80 1011.84 1011.88
1006.20 1006.08 1005.96 1005.80 1005.72 1005.68 1005.68 1005.68 1005.76 1005.80 1005.80 1005.80 1005.76 1005.76 1005.84 1005.92 1006.00 1006.04 1006.12 1006.24 1006.40 1006.48 1006.56 1006.64 1006.76 1006.88 1007.04 1007.20 1007.36 1007.52 1007.68 1007.80 1008.00 1008.20 1008.36 1008.56 1008.68 1008.76 1008.80 1008.80 1008.84 1008.96 1009.04 1009.12 1009.16 1009.16 1009.20 1009.24 1009.36 1009.48 1009.64 1009.80 1010.00 1010.20 1010.36 1010.48 1010.64 1010.76 1010.84 1010.96 1011.04 1011.12 1011.20 1011.28 1011.36 1011.40 1011.48 1011.52 1011.56
1005.92 1005.84 1005.68 1005.56 1005.48 1005.44 1005.44 1005.48 1005.48 1005.48 1005.48 1005.44 1005.40 1005.44 1005.48 1005.56 1005.64 1005.68 1005.80 1006.00 1006.12 1006.24 1006.32 1006.40 1006.56 1006.68 1006.80 1006.96 1007.12 1007.32 1007.48 1007.60 1007.76 1007.92 1008.12 1008.32 1008.44 1008.52 1008.56 1008.64 1008.72 1008.84 1008.92 1009.00 1009.04 1009.04 1009.00 1009.04 1009.04 1009.16 1009.36 1009.52 1009.68 1009.76 1009.92 1010.04 1010.16 1010.32 1010.44 1010.56 1010.64 1010.68 1010.76 1010.88 1010.96 1011.04 1011.12 1011.20 1011.20
1005.64 1005.56 1005.44 1005.36 1005.24 1005.20 1005.20 1005.20 1005.20 1005.16 1005.08 1005.04 1005.04 1005.08 1005.16 1005.20 1005.28 1005.40 1005.52 1005.68 1005.80 1005.88 1005.92 1006.08 1006.24 1006.36 1006.48 1006.68 1006.88 1007.04 1007.20 1007.36 1007.48 1007.64 1007.80 1008.00 1008.16 1008.24 1008.36 1008.44 1008.56 1008.68 1008.80 1008.88 1008.88 1008.80 1008.76 1008.76 1008.76 1008.88 1009.04 1009.20 1009.32 1009.44 1009.56 1009.64 1009.76 1009.92 1010.08 1010.16 1010.24 1010.32 1010.40 1010.52 1010.64 1010.72 1010.76 1010.88 1010.92
1005.32 1005.24 1005.20 1005.08 1005.04 1005.00 1004.96 1004.96 1004.96 1004.92 1004.80 1004.76 1004.72 1004.76 1004.80 1004.88 1004.96 1005.04 1005.20 1005.36 1005.44 1005.48 1005.52 1005.68 1005.84 1005.96 1006.12 1006.36 1006.52 1006.72 1006.92 1007.08 1007.20 1007.36 1007.48 1007.64 1007.80 1007.96 1008.12 1008.20 1008.36 1008.48 1008.64 1008.68 1008.64 1008.60 1008.52 1008.48 1008.48 1008.52 1008.68 1008.84 1008.92 1009.04 1009.20 1009.36 1009.48 1009.60 1009.72 1009.80 1009.92 1009.96 1010.08 1010.24 1010.36 1010.36 1010.44 1010.48 1010.56
1005.00 1004.96 1004.92 1004.88 1004.76 1004.76 1004.72 1004.72 1004.64 1004.64 1004.56 1004.52 1004.48 1004.48 1004.52 1004.56 1004.64 1004.68 1004.80 1004.96 1005.04 1005.12 1005.20 1005.36 1005.48 1005.64 1005.80 1006.04 1006.20 1006.40 1006.56 1006.76 1006.92 1007.04 1007.20 1007.32 1007.48 1007.64 1007.80 1007.92 1008.04 1008.20 1008.36 1008.44 1008.44 1008.36 1008.32 1008.24 1008.20 1008.24 1008.36 1008.48 1008.64 1008.76 1008.92 1009.04 1009.16 1009.28 1009.40 1009.48 1009.60 1009.68 1009.80 1009.92 1010.00 1010.04 1010.08 1010.12 1010.20
1004.76 1004.72 1004.68 1004.64 1004.52 1004.48 1004.48 1004.40 1004.32 1004.32 1004.32 1004.32 1004.28 1004.24 1004.24 1004.28 1004.36 1004.40 1004.48 1004.64 1004.76 1004.84 1004.92 1005.04 1005.16 1005.32 1005.48 1005.72 1005.92 1006.04 1006.20 1006.36 1006.56 1006.68 1006.84 1006.96 1007.12 1007.32 1007.48 1007.56 1007.68 1007.84 1008.00 1008.12 1008.16 1008.16 1008.08 1008.04 1008.00 1007.96 1008.04 1008.20 1008.36 1008.48 1008.64 1008.72 1008.88 1009.00 1009.08 1009.20 1009.36 1009.44 1009.52 1009.60 1009.64 1009.72 1009.72 1009.76 1009.80
1004.60 1004.52 1004.44 1004.36 1004.28 1004.20 1004.16 1004.08 1004.04 1004.00 1004.04 1004.08 1004.04 1004.00 1004.04 1004.08 1004.12 1004.20 1004.28 1004.36 1004.48 1004.56 1004.64 1004.76 1004.88 1005.04 1005.20 1005.40 1005.56 1005.68 1005.84 1006.04 1006.20 1006.36 1006.48 1006.64 1006.80 1006.96 1007.04 1007.20 1007.32 1007.48 1007.64 1007.76 1007.88 1007.92 1007.88 1007.80 1007.76 1007.68 1007.76 1007.92 1008.08 1008.20 1008.32 1008.48 1008.60 1008.68 1008.76 1008.92 1009.04 1009.12 1009.20 1009.24 1009.32 1009.36 1009.36 1009.44 1009.48
Wind_Speed
16 15 13 12 11 11 10 10 11 10 10 10 10 9 9 9 10 9 9 9 9 9 9 9 9 9 11 14 16 17 17 18 19 19 19 19 18 18 18 17 17 17 16 16 15 15 14 14 12 10 8 8 9 9 9 9 10 11 11 11 10 10 11 12 12 13 14 14 11
17 17 15 14 13 12 11 10 10 10 10 9 9 9 9 9 9 9 9 9 8 8 8 8 9 10 12 15 16 17 17 18 19 19 19 19 19 18 18 17 17 17 17 17 16 14 12 14 12 10 8 8 8 9 9 9 10 11 12 13 10 9 10 11 12 13 13 14 12
17 17 16 15 14 13 12 11 11 12 12 11 9 8 8 8 8 8 9 9 9 9 8 8 9 12 14 15 16 16 17 18 19 19 19 18 18 18 18 17 18 18 17 16 16 14 12 13 12 10 8 8 9 9 9 10 10 11 11 13 10 8 8 8 10 11 11 10 12
17 17 16 17 18 17 15 12 12 13 13 10 10 9 9 9 9 9 9 10 10 10 10 9 10 11 13 14 16 16 17 17 19 19 19 18 18 19 19 17 18 18 17 16 16 15 14 14 11 9 9 10 10 10 9 9 10 10 10 10 9 9 8 8 8 9 8 9 10
17 17 16 16 18 18 16 14 14 14 12 10 10 10 10 9 9 10 10 10 10 10 11 11 10 10 11 14 16 17 18 18 19 18 18 18 18 19 19 19 18 18 17 17 16 16 15 15 10 9 9 10 9 9 9 10 10 10 9 8 8 8 8 8 8 8 8 8 9
17 17 17 16 17 17 16 15 16 15 13 11 11 12 11 10 10 11 11 11 11 12 12 13 11 11 12 14 16 17 17 17 18 17 17 18 17 18 19 19 19 18 16 16 17 16 15 14 10 8 8 9 9 9 10 11 11 10 9 8 8 8 8 9 8 8 8 9 10
17 17 17 17 17 17 16 15 15 15 14 13 14 15 15 12 12 13 14 13 11 11 11 11 12 12 12 14 15 15 16 16 16 17 18 17 17 18 18 19 19 18 17 17 17 16 15 14 10 8 8 9 8 9 11 11 11 10 10 10 8 8 8 9 8 8 9 11 12
16 17 17 17 17 17 17 17 15 15 14 13 15 16 17 16 15 15 15 13 12 11 11 10 11 13 13 13 14 14 15 16 16 17 17 17 17 18 18 18 18 18 18 17 17 16 15 13 10 9 9 8 8 9 11 13 12 12 11 11 9 8 8 8 8 9 10 12 13
14 15 16 16 17 17 17 17 17 16 16 15 16 16 17 16 16 16 15 13 12 12 11 10 12 13 14 13 14 14 14 14 15 16 16 17 18 18 18 17 18 18 18 17 17 17 16 12 10 9 9 9 8 9 11 14 14 13 12 11 10 9 9 9 10 10 11 12 13
15 15 15 15 16 16 16 16 17 17 18 18 18 17 16 16 16 15 14 12 12 12 12 11 12 13 14 14 14 13 13 13 14 15 16 16 17 18 18 17 18 18 17 16 16 17 16 13 11 11 10 10 10 11 12 13 14 14 12 10 10 11 12 11 12 12 13 12 13
16 15 14 14 15 15 15 15 15 16 17 17 18 17 16 16 15 15 13 12 13 14 14 13 13 13 14 13 13 13 13 13 13 14 15 16 17 17 18 17 18 18 17 17 16 15 14 12 12 13 13 12 12 12 12 14 14 14 13 11 12 13 13 13 13 13 13 13 13
16 15 14 14 14 13 14 14 14 14 15 16 17 16 16 15 15 15 14 14 15 15 14 13 13 14 13 12 12 13 14 14 14 15 15 16 17 18 18 18 18 18 18 18 16 14 13 13 13 14 15 14 11 11 12 14 14 14 14 14 14 14 14 14 14 13 12 12 13
15 14 14 13 13 13 13 13 12 13 14 15 15 15 14 14 15 15 15 15 15 14 13 12 13 13 13 12 12 13 13 14 15 15 15 16 17 17 18 18 17 17 17 17 15 14 13 14 15 16 16 16 12 11 12 14 14 14 15 16 16 15 15 15 15 14 13 13 13
14 14 13 13 13 13 12 13 12 12 12 14 14 14 13 14 14 14 14 15 15 13 12 11 12 12 12 13 13 13 14 15 16 16 17 16 17 17 18 17 17 17 16 15 15 15 15 15 16 16 16 16 14 13 13 14 14 15 15 16 17 16 16 16 15 15 14 14 14
14 14 13 13 13 12 12 12 11 11 12 14 13 13 13 12 13 13 14 14 14 13 11 10 10 11 12 14 14 14 15 15 16 17 17 17 17 18 18 17 18 17 16 15 15 16 16 16 16 16 16 16 15 14 14 14 14 15 15 16 17 17 16 15 15 15 15 15 15
13 13 13 12 13 12 12 11 10 10 12 13 13 12 12 12 12 13 14 14 13 12 11 11 11 11 11 13 14 14 14 14 15 16 17 17 17 18 18 18 18 18 17 16 16 16 16 16 16 15 15 15 14 14 14 15 15 16 16 16 16 16 16 15 15 15 15 15 15
13 13 13 12 13 13 13 12 11 10 11 12 13 12 12 12 11 12 13 14 12 12 12 13 12 11 11 13 13 13 13 13 14 15 15 16 16 17 17 18 18 18 18 17 17 17 16 16 15 14 14 14 14 14 14 15 15 16 16 16 16 16 15 15 15 14 15 15 16
13 12 12 13 13 14 14 13 12 12 12 13 13 13 12 12 12 12 13 14 14 14 14 14 13 12 12 13 13 13 12 13 14 14 15 15 15 16 17 18 17 17 17 17 17 17 17 16 15 14 13 13 13 14 14 15 15 15 16 16 16 15 15 15 14 14 14 15 16
12 12 12 13 13 14 14 14 14 14 13 13 13 13 13 14 14 14 14 15 16 16 16 16 15 15 15 16 15 14 13 13 15 15 15 15 15 16 16 17 16 16 16 16 17 17 16 16 15 14 14 13 14 14 14 15 15 15 15 15 15 15 14 14 14 14 14 15 15
12 12 12 13 13 13 14 14 14 14 14 13 14 14 15 15 15 15 16 16 17 18 18 18 18 17 18 18 17 16 15 13 15 15 15 15 16 16 16 16 15 15 15 16 15 15 15 15 15 15 15 15 15 15 15 15 15 15 15 14 14 14 14 14 15 15 15 15 15
12 12 12 12 12 13 13 13 13 14 14 14 14 15 15 15 16 16 17 17 18 18 19 20 20 20 19 20 19 18 16 14 15 15 16 16 16 16 16 15 15 14 14 15 14 15 15 15 15 15 15 16 16 16 16 16 16 15 15 13 13 14 15 15 15 15 16 16 15
11 11 11 11 11 12 12 12 13 13 13 13 14 14 14 14 14 15 15 15 16 17 18 19 19 19 19 19 19 18 17 14 15 15 16 15 15 15 15 15 15 14 14 15 14 15 15 16 16 16 16 15 16 16 16 16 15 15 15 15 14 15 15 15 15 16 16 16 16
10 10 10 10 11 11 12 12 12 12 12 12 12 13 13 13 13 13 13 14 14 15 16 16 16 17 17 17 18 17 17 16 16 15 15 15 14 14 14 14 15 15 15 14 14 15 15 15 16 16 16 15 15 16 16 16 15 14 14 15 15 15 15 15 16 16 16 16 16
10 9 9 8 10 10 11 11 11 12 12 12 12 12 12 13 12 12 13 13 13 14 14 13 13 14 15 15 16 16 17 17 16 15 15 15 14 14 14 14 15 15 15 14 15 16 16 14 14 15 15 14 15 15 16 15 15 14 14 15 15 15 15 16 16 16 16 16 16
10 10 10 9 10 10 10 11 11 12 12 12 12 12 12 13 12 12 12 12 12 13 13 13 12 12 12 13 15 16 16 17 16 15 15 15 15 15 14 13 14 14 14 14 19 22 22 19 16 14 13 13 14 14 14 14 14 14 14 14 14 14 15 16 16 16 17 17 16
10 10 10 11 11 11 11 11 12 12 12 12 12 12 13 13 12 12 12 12 12 13 13 14 13 12 12 12 14 15 15 15 15 14 14 15 15 15 15 13 13 12 13 16 23 27 28 26 23 19 15 13 13 13 13 13 14 14 14 14 14 14 14 15 15 16 16 16 16
10 10 10 10 11 11 12 12 12 12 12 12 13 13 13 13 12 13 13 13 13 13 13 13 13 12 12 12 14 15 15 13 13 14 14 15 15 16 16 14 13 12 13 19 25 29 30 30 29 25 20 14 13 13 13 13 14 14 14 14 14 14 14 14 15 15 16 15 16
10 10 10 10 11 12 12 12 12 13 13 13 13 13 13 13 13 14 14 14 14 13 13 12 12 12 11 11 13 14 14 13 13 13 14 15 16 17 17 15 14 14 16 22 27 29 31 31 31 29 25 18 14 13 13 12 13 13 13 13 13 14 14 14 14 14 15 15 15
11 10 10 11 12 12 12 12 13 13 14 14 13 13 13 14 14 15 15 15 14 14 13 11 11 10 11 12 13 14 14 15 14 14 14 16 17 18 17 17 16 16 20 25 28 30 31 32 32 31 28 23 15 11 11 11 11 11 11 11 12 13 14 14 13 13 14 14 15
11 11 11 12 12 12 13 13 13 13 13 12 13 13 14 14 15 15 16 16 15 14 13 11 11 12 14 15 14 14 15 16 15 15 16 18 19 19 18 18 17 18 21 27 29 30 31 32 32 31 30 27 19 13 10 11 11 11 11 11 13 14 15 15 15 15 15 14 14
12 12 12 13 13 13 13 13 13 12 12 11 12 13 14 15 15 16 16 15 15 14 13 13 14 16 17 16 15 15 15 16 16 16 17 18 19 20 19 19 18 19 21 28 30 31 31 31 32 31 31 30 21 15 12 12 12 12 12 12 14 15 16 15 16 16 16 16 15
12 12 13 13 14 14 13 13 12 12 12 13 13 14 14 15 15 15 15 15 14 14 15 15 16 17 17 17 16 16 16 16 16 17 17 17 18 19 19 19 19 19 22 28 30 31 31 31 31 31 31 31 22 17 14 14 14 13 13 14 15 16 16 14 14 16 17 17 16
12 12 13 14 14 14 13 12 12 12 13 13 14 15 15 15 15 15 15 14 14 15 16 17 17 17 17 17 17 17 17 16 17 17 18 18 18 18 18 18 17 19 23 28 30 31 31 31 31 31 31 31 23 18 16 15 13 13 13 14 15 16 17 17 16 16 16 17 16
11 12 13 14 14 14 13 12 12 12 13 14 14 15 15 15 15 15 14 14 14 14 15 16 17 17 17 17 17 17 16 15 15 16 17 17 17 18 18 17 14 17 22 28 30 31 31 31 31 31 31 31 22 18 16 17 14 13 13 14 15 16 16 17 17 16 16 16 15
11 12 13 14 14 13 13 13 13 13 14 14 15 15 15 15 15 15 15 14 14 14 14 15 15 15 15 15 16 16 16 16 15 16 16 17 17 18 18 18 15 17 22 27 29 30 30 31 30 31 30 28 20 16 16 17 15 15 15 16 16 16 17 16 16 15 15 15 15
11 12 13 14 14 14 13 13 13 13 14 15 15 15 15 15 15 15 14 14 14 14 14 14 14 14 15 15 15 15 16 16 16 16 16 16 17 18 18 18 17 18 22 26 28 29 30 30 30 30 29 24 17 14 14 14 14 15 16 16 16 17 17 16 15 14 14 14 15
11 12 13 14 14 14 14 13 13 14 15 15 15 15 15 15 14 14 13 13 14 14 15 14 15 15 15 15 14 15 15 16 16 16 16 16 17 17 18 18 17 18 21 24 27 28 30 30 31 30 27 21 16 13 13 12 11 12 14 16 16 16 16 14 14 13 13 13 14
11 12 13 14 14 14 14 13 14 15 15 16 15 15 14 14 13 13 13 13 13 14 15 14 15 15 15 15 14 15 15 15 16 16 16 16 16 17 17 17 17 17 19 23 26 28 29 30 31 30 26 19 15 13 11 10 10 11 12 13 13 14 14 12 12 12 12 13 15
12 12 12 13 14 15 15 14 15 15 16 15 15 14 14 13 13 12 12 12 13 14 14 14 15 14 14 14 14 14 15 16 16 16 16 16 16 17 17 17 17 16 18 21 25 28 29 30 31 30 27 20 15 12 10 9 11 11 12 11 11 12 13 12 11 11 12 14 17
14 13 13 13 14 15 15 15 16 15 15 14 14 14 14 13 12 12 12 12 13 13 13 14 14 14 13 13 13 14 14 15 15 16 16 16 16 18 18 18 17 17 18 21 25 27 29 30 31 31 28 20 15 12 10 9 10 11 11 11 10 10 10 11 11 10 11 12 15
15 14 14 14 14 14 15 16 16 15 15 14 14 14 13 12 12 11 11 11 12 12 12 12 13 13 13 13 13 13 14 15 15 15 16 16 17 18 18 18 17 17 17 20 24 27 29 30 30 31 28 20 15 11 10 9 10 11 12 12 10 9 9 10 10 10 10 11 11
Wind_Direction
228 227 227 228 229 230 231 233 233 232 231 230 228 224 219 217 220 219 216 211 212 212 210 208 206 204 201 198 197 197 198 200 201 203 204 203 201 199 197 196 195 195 195 196 194 192 191 192 193 193 194 196 200 202 203 203 204 206 207 208 210 213 215 217 220 222 223 224 225
228 228 228 228 228 229 230 231 231 230 229 228 227 225 222 220 221 221 219 216 214 212 210 209 206 203 201 199 198 197 198 199 201 202 204 205 203 200 197 196 195 195 194 194 193 191 190 190 191 192 193 194 198 201 202 201 203 206 208 209 210 211 214 218 220 223 224 226 227
229 228 228 227 226 226 226 227 227 227 227 227 225 223 222 220 221 222 221 218 215 213 211 209 206 203 201 200 198 197 198 199 199 201 203 204 203 201 198 197 196 195 194 193 192 191 190 189 190 191 193 194 197 199 200 200 202 205 208 209 210 211 213 217 219 221 223 225 225
229 228 228 227 227 226 226 227 227 226 225 225 224 223 222 221 220 220 221 220 217 215 212 209 207 204 201 199 198 197 197 197 198 200 202 203 202 201 199 198 196 195 194 193 193 192 190 188 190 192 194 195 197 199 199 197 199 203 207 208 209 211 213 216 217 217 219 222 224
229 228 227 228 227 227 228 228 228 227 225 223 222 222 220 219 220 221 221 220 217 215 212 209 207 203 200 199 198 197 197 196 197 199 201 202 201 200 199 198 197 196 194 193 192 191 189 188 189 192 195 196 198 199 198 196 198 201 205 207 208 210 212 214 215 216 217 220 220
230 229 228 229 228 228 229 229 229 228 227 224 223 223 221 218 218 219 220 220 219 217 213 209 207 204 201 199 198 197 196 196 196 198 199 201 200 199 199 199 198 196 194 193 192 190 189 188 189 192 194 196 199 200 199 196 197 200 204 207 208 209 211 213 214 215 217 218 219
230 229 229 229 228 228 228 228 228 228 228 227 227 225 224 220 220 220 221 222 221 217 212 208 206 204 202 199 199 197 196 195 196 197 198 199 199 198 198 198 198 197 195 193 192 190 189 188 189 191 194 195 198 199 199 197 198 201 204 208 208 209 210 213 214 215 217 219 220
231 230 229 229 229 228 228 228 227 228 228 229 228 228 226 224 223 222 223 223 222 218 213 208 206 204 202 199 198 196 195 195 196 197 197 198 198 197 197 197 197 197 196 194 192 190 189 189 191 192 193 193 195 197 198 198 200 203 206 208 209 209 209 210 212 215 218 220 220
232 231 230 229 229 228 228 227 227 228 229 230 231 230 229 227 225 224 223 224 223 219 214 210 207 205 202 199 197 195 194 194 196 197 197 198 197 197 196 196 197 197 196 194 193 191 190 190 193 194 194 194 195 196 196 196 200 204 207 210 212 212 211 210 211 214 218 220 221
233 231 230 229 229 228 228 227 228 229 231 233 233 232 230 228 226 224 224 224 223 220 216 211 206 204 202 200 197 195 194 194 196 197 197 197 196 196 195 195 195 196 196 194 193 191 190 191 194 195 195 196 196 195 194 194 199 203 207 211 213 214 215 214 213 215 218 220 221
235 233 231 230 229 228 227 227 228 230 231 234 235 234 232 229 227 225 224 223 223 221 218 212 206 203 202 200 197 196 194 194 196 197 197 197 197 196 195 195 195 194 194 193 191 190 190 192 194 195 196 196 195 194 194 194 197 201 206 212 214 216 217 217 216 216 218 220 222
237 235 233 232 229 228 226 226 228 229 231 233 234 234 233 231 228 226 224 223 223 222 219 212 207 203 201 199 197 195 195 195 196 197 198 198 198 197 196 196 195 195 194 192 190 189 190 192 193 194 195 196 194 193 193 194 196 200 205 212 214 216 217 218 217 217 218 220 222
239 237 235 232 230 227 226 226 228 229 230 232 232 232 232 231 229 226 224 223 223 222 218 212 207 204 202 199 197 196 196 196 196 197 198 198 198 197 197 197 195 195 194 193 191 190 190 192 192 193 194 195 193 192 192 193 197 201 206 210 213 216 217 218 217 218 220 221 223
243 240 237 233 230 227 226 226 227 228 229 230 230 230 230 230 228 226 224 223 222 219 215 210 207 205 204 201 199 198 197 197 197 198 199 198 198 197 197 197 195 194 193 193 192 191 191 191 192 193 194 194 193 192 192 194 199 203 207 210 213 215 217 217 217 218 220 222 225
246 243 239 234 230 227 226 225 226 228 229 230 229 227 227 228 226 224 223 222 219 216 212 207 207 207 206 205 203 201 200 199 199 200 200 199 198 197 197 197 195 194 193 193 193 193 192 192 192 193 194 194 193 193 194 197 201 206 209 212 214 215 217 218 217 217 219 221 225
248 245 240 235 231 228 226 225 226 228 229 229 227 225 224 224 223 222 221 219 216 213 209 208 207 206 206 206 206 204 203 202 202 203 202 201 199 197 196 196 195 194 193 193 193 194 194 193 192 192 192 192 192 194 197 200 204 208 211 214 215 216 217 218 218 218 219 220 224
248 245 241 236 233 230 228 226 226 227 228 228 226 223 222 222 220 219 217 215 212 210 208 208 206 205 205 207 206 205 205 205 205 205 205 204 201 198 197 197 196 194 192 192 193 193 193 193 192 191 190 191 193 197 200 203 206 210 212 215 216 217 218 219 218 218 219 221 224
248 246 242 238 235 233 230 228 228 228 228 228 226 223 221 220 218 216 214 212 210 209 208 207 206 204 204 206 205 204 204 205 206 207 207 206 203 200 199 198 196 193 191 192 193 192 191 191 189 188 189 192 196 200 203 205 209 211 213 215 216 217 218 219 219 219 220 222 225
250 247 243 240 238 236 233 231 230 229 228 227 226 224 221 219 216 213 211 210 209 208 207 207 206 205 205 205 205 204 204 204 206 206 207 206 204 202 201 199 196 193 192 192 193 192 190 188 187 187 188 193 198 202 205 208 211 212 213 215 216 217 219 219 220 221 222 224 226
252 249 246 242 240 238 236 234 232 231 229 228 226 224 222 218 214 212 210 209 208 207 206 206 205 205 205 204 204 203 203 203 204 205 205 205 204 203 201 199 196 193 192 192 192 191 189 187 187 188 190 194 199 203 207 209 211 213 213 215 216 218 219 220 221 222 224 225 227
254 251 249 246 243 241 239 237 236 234 232 231 228 226 223 220 217 214 212 211 209 208 207 207 206 205 204 203 203 202 202 201 202 203 204 204 203 201 199 196 195 193 191 191 191 189 187 187 189 190 193 196 200 203 206 208 210 211 212 214 216 218 219 221 222 223 225 226 227
256 254 252 249 247 245 243 241 240 238 237 235 233 231 229 227 224 221 219 217 215 214 213 212 210 208 205 204 203 202 201 201 202 202 203 201 201 199 197 194 193 191 190 190 189 188 188 189 191 193 194 197 200 203 205 207 209 210 211 213 216 218 220 221 223 224 225 226 227
258 256 254 251 249 247 245 244 242 241 240 239 238 237 235 234 232 230 228 225 224 223 222 221 218 215 211 208 205 204 203 203 203 203 201 199 198 196 195 193 192 191 190 189 188 187 188 191 193 194 195 197 200 203 205 207 207 208 209 212 215 217 220 222 223 225 226 227 228
258 255 252 249 247 245 244 243 242 241 241 240 239 238 237 237 236 235 233 231 231 230 229 229 227 223 219 215 211 208 206 205 204 202 200 197 195 194 193 192 192 192 191 190 189 189 189 190 192 194 195 197 200 203 205 206 206 206 208 211 214 217 220 222 224 225 227 228 228
255 252 248 246 244 242 240 239 238 238 238 238 237 236 236 235 234 233 232 231 231 232 232 233 232 228 224 221 218 215 212 209 206 202 198 195 193 192 191 192 193 194 194 193 194 193 193 193 192 192 193 195 198 201 204 205 205 206 207 210 212 216 220 223 225 226 227 228 229
252 248 245 242 241 239 237 235 235 236 236 235 234 233 232 232 231 230 229 229 229 230 231 232 230 227 224 223 221 219 217 214 209 203 198 195 193 192 192 193 195 196 196 197 197 197 197 198 196 194 192 192 196 199 202 205 205 206 208 210 213 216 220 223 226 227 228 229 229
252 247 243 240 239 238 236 234 233 233 233 233 231 230 229 228 227 227 227 226 226 227 227 229 228 226 224 223 221 220 218 216 212 206 201 197 195 194 195 197 198 199 199 200 200 200 201 201 200 197 193 191 194 197 200 203 204 205 208 211 214 217 221 224 227 229 231 232 232
256 250 245 241 239 237 236 234 232 232 231 230 229 228 226 225 225 225 225 225 224 223 223 224 224 224 223 222 219 217 215 214 211 209 205 202 199 199 199 200 202 202 202 202 202 203 203 204 203 200 196 191 193 196 199 201 201 203 206 210 214 218 222 225 228 231 233 234 234
262 257 251 245 242 239 237 234 232 231 231 229 228 227 225 223 223 224 224 224 222 221 219 218 218 219 220 220 217 215 213 211 210 208 207 206 205 204 204 204 205 205 205 204 205 205 206 206 206 203 198 192 191 192 196 199 200 201 204 209 213 217 220 223 227 230 232 234 234
262 259 255 250 247 243 240 237 235 233 231 230 228 226 225 224 224 224 224 224 222 219 217 214 214 216 218 218 215 213 211 209 208 207 206 207 207 207 207 207 207 207 207 206 207 208 208 208 207 205 201 195 191 190 194 198 201 203 206 209 213 216 219 222 225 228 230 231 233
262 259 257 254 251 248 245 241 238 235 233 230 228 227 227 226 226 225 225 224 222 219 216 214 216 218 219 218 215 213 210 208 207 206 207 208 209 209 209 208 207 207 208 208 209 209 209 209 209 207 204 198 192 190 192 197 201 204 207 210 212 215 217 220 222 225 227 229 231
263 261 258 257 255 252 249 245 241 237 234 231 230 229 228 229 228 227 226 224 222 220 217 216 217 219 220 219 218 216 213 209 208 208 208 208 210 210 210 210 208 208 209 209 210 210 211 211 210 209 206 202 196 191 191 196 200 205 209 212 214 215 216 218 221 223 225 227 229
264 262 259 258 257 255 252 248 243 238 235 233 231 231 230 230 230 229 227 225 222 220 219 218 218 219 219 219 219 218 216 213 211 211 211 211 211 212 212 212 211 211 210 211 211 212 211 211 210 209 208 205 201 196 193 197 201 205 210 213 215 217 219 220 223 225 226 227 229
264 263 262 260 258 256 253 249 243 239 237 235 234 233 232 231 231 229 227 224 222 221 221 221 220 220 220 220 220 219 219 217 214 213 213 213 213 214 215 215 216 213 212 212 213 213 212 212 210 210 209 208 206 202 198 200 203 206 210 214 216 218 220 222 224 227 228 230 231
265 264 263 262 260 258 254 249 244 241 238 238 237 235 233 232 231 230 228 225 223 223 224 224 223 223 223 222 221 221 221 220 218 215 214 213 214 215 217 218 219 217 215 214 214 214 213 212 211 210 210 210 209 207 204 203 205 208 211 214 217 220 222 223 225 227 229 231 233
269 267 265 264 262 260 256 251 247 243 240 239 238 237 235 233 232 231 229 225 224 224 225 225 224 224 224 224 223 222 221 221 219 217 215 213 214 216 219 220 221 220 218 217 216 215 214 213 211 210 209 210 210 210 208 206 207 210 212 216 219 221 223 224 226 228 230 231 233
270 268 267 266 265 262 258 254 250 246 244 241 240 238 236 235 234 232 228 225 225 225 225 224 224 223 223 222 222 222 221 221 220 218 216 214 214 216 219 221 222 221 220 219 217 216 215 213 211 210 209 209 210 209 209 208 209 211 214 217 221 223 224 227 228 229 230 230 231
273 268 265 265 265 264 261 257 253 250 247 246 243 240 237 235 234 231 227 223 224 226 226 225 224 223 222 221 221 221 221 220 219 218 217 215 214 215 218 221 221 221 220 219 219 218 216 214 212 210 209 209 208 207 207 207 209 212 214 218 221 223 225 227 229 230 230 228 229
284 274 266 264 264 263 262 259 255 253 251 250 247 244 240 237 235 231 226 222 223 225 226 226 225 224 222 219 220 220 220 219 218 217 217 216 215 215 216 219 220 220 219 219 220 219 218 216 214 212 210 210 207 205 204 205 208 211 214 217 220 223 224 226 228 230 230 229 230
294 285 274 267 264 263 262 260 257 255 253 252 250 247 244 239 236 232 227 223 222 223 225 227 226 224 221 218 219 220 220 219 217 216 216 216 215 215 216 218 219 219 218 219 220 220 219 217 215 213 211 210 207 204 203 203 207 211 213 215 217 220 223 224 226 229 230 231 231
299 292 284 275 269 265 262 261 259 258 255 253 251 249 247 243 239 234 228 224 222 222 223 225 225 223 220 217 218 219 219 218 216 215 215 215 216 216 217 218 218 218 217 218 219 220 221 219 217 215 212 209 206 203 202 202 206 210 212 214 215 217 220 223 225 227 229 230 232